When you browse on this site, cookies collect data to enhance your experience and personalize the content and advertising you see.
Visit our Privacy Policy to learn more. By continuing to use the site, you agree to this use of cookies and data.
  • In Schweiz
  • Länderverzeichnis
  • Für 7 Tage
  • Wassertemperatur
  • Satellitenkarten
  • Wetterkarte
  • Widgets
  • user-avatar
    Anmelden

    Stündliche Wetter Siempang

    Heute, 12 Dezember, Mittwoch

    Zeit Temperatur Niederschläge Wind Luftdruck Luftfeuchtigkeit
    00:00 +26°C° 0 mm 1 m/S 754 mmHg 75%
    01:00 +22°C° 0 mm 0 m/S 754 mmHg 84%
    02:00 +24°C° 0 mm 1 m/S 754 mmHg 85%
    03:00 +24°C° 0 mm 1 m/S 754 mmHg 85%
    04:00 +24°C° 0 mm 1 m/S 754 mmHg 86%
    05:00 +24°C° 0 mm 1 m/S 754 mmHg 85%
    06:00 +24°C° 0 mm 1 m/S 754 mmHg 83%
    07:00 +25°C° 0 mm 1 m/S 754 mmHg 81%
    08:00 +27°C° 0 mm 1 m/S 754 mmHg 71%
    09:00 +30°C° 0 mm 1 m/S 755 mmHg 60%
    10:00 +32°C° 0 mm 2 m/S 755 mmHg 50%
    11:00 +35°C° 0 mm 2 m/S 754 mmHg 46%
    12:00 +36°C° 0 mm 2 m/S 754 mmHg 43%
    13:00 +38°C° 0 mm 2 m/S 753 mmHg 39%
    14:00 +36°C° 0 mm 2 m/S 753 mmHg 45%
    15:00 +34°C° 0 mm 1 m/S 752 mmHg 50%
    16:00 +32°C° 0 mm 1 m/S 752 mmHg 56%
    17:00 +31°C° 0.1 mm 1 m/S 753 mmHg 58%
    18:00 +30°C° 0.1 mm 1 m/S 753 mmHg 61%
    19:00 +29°C° 0.1 mm 1 m/S 753 mmHg 63%
    20:00 +28°C° 0 mm 1 m/S 754 mmHg 66%
    21:00 +27°C° 0 mm 1 m/S 754 mmHg 68%
    22:00 +26°C° 0 mm 1 m/S 754 mmHg 71%
    23:00 +26°C° 0 mm 1 m/S 754 mmHg 73%

    Morgen, 13 Dezember, Donnerstag

    Zeit Temperatur Niederschläge Wind Luftdruck Luftfeuchtigkeit
    00:00 +25°C° 0 mm 1 m/S 754 mmHg 75%
    01:00 +24°C° 0 mm 1 m/S 754 mmHg 77%
    02:00 +24°C° 0 mm 1 m/S 754 mmHg 79%
    03:00 +24°C° 0 mm 1 m/S 754 mmHg 80%
    04:00 +23°C° 0 mm 1 m/S 754 mmHg 81%
    05:00 +23°C° 0 mm 1 m/S 754 mmHg 80%
    06:00 +24°C° 0 mm 1 m/S 755 mmHg 79%
    07:00 +24°C° 0 mm 1 m/S 755 mmHg 78%
    08:00 +26°C° 0 mm 1 m/S 755 mmHg 69%
    09:00 +29°C° 0 mm 2 m/S 755 mmHg 59%
    10:00 +32°C° 0 mm 2 m/S 756 mmHg 49%
    11:00 +34°C° 0 mm 2 m/S 755 mmHg 46%
    12:00 +35°C° 0 mm 2 m/S 754 mmHg 42%
    13:00 +36°C° 0 mm 2 m/S 754 mmHg 39%
    14:00 +36°C° 0 mm 2 m/S 753 mmHg 42%
    15:00 +35°C° 0 mm 2 m/S 753 mmHg 45%
    16:00 +33°C° 0 mm 1 m/S 753 mmHg 48%
    17:00 +32°C° 0 mm 2 m/S 753 mmHg 52%
    18:00 +30°C° 0 mm 2 m/S 753 mmHg 55%
    19:00 +29°C° 0 mm 2 m/S 754 mmHg 58%
    20:00 +28°C° 0 mm 2 m/S 754 mmHg 62%
    21:00 +27°C° 0 mm 2 m/S 755 mmHg 65%
    22:00 +26°C° 0 mm 1 m/S 755 mmHg 68%
    23:00 +25°C° 0 mm 1 m/S 755 mmHg 71%

    übermorgen, 14 Dezember, Freitag

    Zeit Temperatur Niederschläge Wind Luftdruck Luftfeuchtigkeit
    00:00 +25°C° 0 mm 1 m/S 755 mmHg 74%
    01:00 +24°C° 0 mm 1 m/S 755 mmHg 77%
    02:00 +24°C° 0 mm 1 m/S 754 mmHg 79%
    03:00 +21°C° 0 mm 0 m/S 754 mmHg 80%
    04:00 +21°C° 0 mm 0 m/S 754 mmHg 82%
    05:00 +21°C° 0 mm 0 m/S 754 mmHg 80%
    06:00 +24°C° 0 mm 1 m/S 755 mmHg 79%
    07:00 +24°C° 0 mm 1 m/S 755 mmHg 78%
    08:00 +27°C° 0 mm 1 m/S 755 mmHg 68%
    09:00 +29°C° 0 mm 2 m/S 755 mmHg 58%
    10:00 +32°C° 0 mm 2 m/S 756 mmHg 48%
    11:00 +35°C° 0 mm 2 m/S 755 mmHg 44%
    12:00 +36°C° 0 mm 2 m/S 754 mmHg 41%
    13:00 +37°C° 0 mm 3 m/S 753 mmHg 37%
    14:00 +37°C° 0 mm 2 m/S 753 mmHg 38%
    15:00 +36°C° 0 mm 2 m/S 752 mmHg 40%
    16:00 +36°C° 0 mm 2 m/S 752 mmHg 41%
    17:00 +34°C° 0 mm 2 m/S 752 mmHg 46%
    18:00 +31°C° 0 mm 2 m/S 753 mmHg 50%
    19:00 +30°C° 0 mm 2 m/S 754 mmHg 54%
    20:00 +28°C° 0 mm 2 m/S 754 mmHg 59%
    21:00 +27°C° 0 mm 2 m/S 755 mmHg 63%
    22:00 +26°C° 0 mm 1 m/S 755 mmHg 67%
    23:00 +25°C° 0 mm 1 m/S 755 mmHg 70%

    15 Dezember, Samstag

    Zeit Temperatur Niederschläge Wind Luftdruck Luftfeuchtigkeit
    00:00 +25°C° 0 mm 1 m/S 754 mmHg 72%
    01:00 +24°C° 0 mm 1 m/S 754 mmHg 75%
    02:00 +24°C° 0 mm 1 m/S 754 mmHg 76%
    03:00 +24°C° 0 mm 1 m/S 754 mmHg 77%
    04:00 +23°C° 0 mm 1 m/S 753 mmHg 78%
    05:00 +24°C° 0 mm 1 m/S 754 mmHg 77%
    06:00 +24°C° 0 mm 1 m/S 754 mmHg 76%
    07:00 +24°C° 0 mm 1 m/S 755 mmHg 75%
    08:00 +27°C° 0 mm 1 m/S 755 mmHg 66%
    09:00 +30°C° 0 mm 2 m/S 755 mmHg 57%
    10:00 +34°C° 0 mm 2 m/S 755 mmHg 48%
    11:00 +35°C° 0 mm 2 m/S 755 mmHg 46%
    12:00 +36°C° 0 mm 2 m/S 754 mmHg 43%
    13:00 +37°C° 0 mm 2 m/S 753 mmHg 40%
    14:00 +37°C° 0 mm 2 m/S 753 mmHg 42%
    15:00 +36°C° 0 mm 2 m/S 752 mmHg 43%
    16:00 +35°C° 0 mm 2 m/S 752 mmHg 45%
    17:00 +34°C° 0 mm 2 m/S 752 mmHg 51%
    18:00 +31°C° 0 mm 2 m/S 753 mmHg 56%
    19:00 +29°C° 0 mm 1 m/S 753 mmHg 61%
    20:00 +28°C° 0 mm 1 m/S 754 mmHg 65%
    21:00 +27°C° 0 mm 1 m/S 754 mmHg 68%
    22:00 +26°C° 0 mm 1 m/S 755 mmHg 72%
    23:00 +26°C° 0 mm 1 m/S 754 mmHg 74%

    16 Dezember, Sonntag

    Zeit Temperatur Niederschläge Wind Luftdruck Luftfeuchtigkeit
    00:00 +25°C° 0 mm 1 m/S 754 mmHg 77%
    01:00 +25°C° 0 mm 1 m/S 754 mmHg 79%
    02:00 +25°C° 0 mm 1 m/S 754 mmHg 80%
    03:00 +24°C° 0 mm 1 m/S 754 mmHg 81%
    04:00 +22°C° 0 mm 0 m/S 753 mmHg 82%
    05:00 +22°C° 0 mm 0 m/S 754 mmHg 81%
    06:00 +23°C° 0 mm 0 m/S 754 mmHg 80%
    07:00 +23°C° 0 mm 0 m/S 755 mmHg 78%
    08:00 +28°C° 0 mm 1 m/S 755 mmHg 69%
    09:00 +30°C° 0 mm 1 m/S 755 mmHg 59%
    10:00 +34°C° 0 mm 2 m/S 755 mmHg 50%
    11:00 +35°C° 0 mm 2 m/S 754 mmHg 46%
    12:00 +36°C° 0 mm 2 m/S 754 mmHg 42%
    13:00 +38°C° 0 mm 2 m/S 753 mmHg 39%
    14:00 +36°C° 0 mm 1 m/S 752 mmHg 41%
    15:00 +35°C° 0 mm 1 m/S 752 mmHg 43%
    16:00 +35°C° 0 mm 1 m/S 752 mmHg 45%
    17:00 +33°C° 0.1 mm 1 m/S 752 mmHg 53%
    18:00 +30°C° 0.1 mm 1 m/S 753 mmHg 62%
    19:00 +28°C° 0.1 mm 1 m/S 754 mmHg 70%
    20:00 +28°C° 0 mm 1 m/S 754 mmHg 72%
    21:00 +27°C° 0 mm 1 m/S 754 mmHg 74%
    22:00 +26°C° 0 mm 1 m/S 755 mmHg 76%
    23:00 +26°C° 0 mm 1 m/S 754 mmHg 78%

    17 Dezember, Montag

    Zeit Temperatur Niederschläge Wind Luftdruck Luftfeuchtigkeit
    00:00 +25°C° 0 mm 1 m/S 754 mmHg 80%
    01:00 +24°C° 0 mm 1 m/S 754 mmHg 82%
    02:00 +24°C° 0 mm 1 m/S 754 mmHg 83%
    03:00 +24°C° 0 mm 1 m/S 754 mmHg 84%
    04:00 +23°C° 0 mm 1 m/S 754 mmHg 85%
    05:00 +23°C° 0 mm 1 m/S 754 mmHg 84%
    06:00 +24°C° 0 mm 1 m/S 755 mmHg 82%
    07:00 +24°C° 0 mm 1 m/S 755 mmHg 81%
    08:00 +26°C° 0 mm 1 m/S 755 mmHg 70%
    09:00 +29°C° 0 mm 1 m/S 755 mmHg 59%
    10:00 +32°C° 0 mm 2 m/S 755 mmHg 48%
    11:00 +34°C° 0 mm 2 m/S 754 mmHg 44%
    12:00 +36°C° 0 mm 2 m/S 754 mmHg 40%
    13:00 +36°C° 0 mm 1 m/S 753 mmHg 36%
    14:00 +35°C° 0 mm 1 m/S 753 mmHg 38%
    15:00 +35°C° 0 mm 1 m/S 752 mmHg 40%
    16:00 +34°C° 0 mm 1 m/S 752 mmHg 42%
    17:00 +32°C° 0 mm 2 m/S 753 mmHg 46%
    18:00 +31°C° 0 mm 2 m/S 753 mmHg 50%
    19:00 +29°C° 0 mm 2 m/S 754 mmHg 53%
    20:00 +28°C° 0 mm 2 m/S 754 mmHg 57%
    21:00 +27°C° 0 mm 2 m/S 755 mmHg 61%
    22:00 +25°C° 0 mm 1 m/S 755 mmHg 65%
    23:00 +25°C° 0 mm 1 m/S 755 mmHg 68%
    Mehr zeigen